Weather History for KCCY - September, 2013

Change the Weather History Date:

Friday, September 6, 2013

  Actual Average Record
Temperature  
Mean Temperature 74 °F -  
Max Temperature 86 °F 79 °F 92 °F (1978)
Min Temperature 62 °F 54 °F 37 °F (1988)
Cooling Degree Days 9    
Growing Degree Days 24 (Base 50)    
Moisture  
Dew Point 62 °F    
Average Humidity 68    
Maximum Humidity 94    
Minimum Humidity 40    
Precipitation  
Precipitation 0.00 in - - ()
Sea Level Pressure  
Sea Level Pressure 30.08 in    
Wind  
Wind Speed 10 mph (SSE)    
Max Wind Speed 18 mph    
Max Gust Speed 25 mph    
Visibility 10 miles    
Events      
Averages and records for this station are not official NWS values.
T = Trace of Precipitation, MM = Missing Value Source: NWS Daily Summary

Daily Weather History Graph

Daily Weather History Graph

Search for Another Location

Airport or City:

Trip Planner

Search our weather history database for the weather conditions in past years. The results will help you decide how hot, cold, wet, or windy it might be!

Date:

Astronomy

Sep. 06, 2013 Rise Set
Actual Time 6:40 AM CDT 7:36 PM CDT
Civil Twilight 6:11 AM CDT 8:04 PM CDT
Nautical Twilight 5:37 AM CDT 8:39 PM CDT
Astronomical Twilight 5:01 AM CDT 9:15 PM CDT
Moon 7:56 AM CDT (9/6) 7:56 PM CDT (9/6)
Length of Visible Light 13h 53m
Length of Day
12h 55m
New Moon, 2% of the Moon is Illuminated
Sep 6
New Moon
Sep 12
First Quarter
Sep 19
Full
Sep 26
Last Quarter
Oct 4
New

Hourly Weather History & Observations

Time (CDT) Temp. Heat Index Dew Point Humidity Pressure Visibility Wind Dir Wind Speed Gust Speed Precip Events Conditions
12:15 AM 69.8 °F - 64.4 °F 83% 30.16 in 10.0 mi ESE 10.4 mph - N/A   Clear
12:35 AM 69.8 °F - 64.4 °F 83% 30.16 in 10.0 mi SE 11.5 mph - N/A   Clear
12:55 AM 68.0 °F - 64.4 °F 88% 30.16 in 10.0 mi SE 9.2 mph - N/A   Clear
1:15 AM 68.0 °F - 64.4 °F 88% 30.16 in 10.0 mi SE 11.5 mph - N/A   Clear
1:35 AM 68.0 °F - 64.4 °F 88% 30.16 in 10.0 mi SE 9.2 mph - N/A   Clear
1:55 AM 68.0 °F - 62.6 °F 83% 30.15 in 10.0 mi SE 10.4 mph - N/A   Clear
2:15 AM 68.0 °F - 62.6 °F 83% 30.15 in 10.0 mi SE 9.2 mph - N/A   Clear
2:35 AM 66.2 °F - 62.6 °F 88% 30.15 in 10.0 mi SE 9.2 mph - N/A   Clear
2:55 AM 66.2 °F - 62.6 °F 88% 30.15 in 10.0 mi SE 9.2 mph - N/A   Clear
3:15 AM 66.2 °F - 62.6 °F 88% 30.15 in 10.0 mi SSE 8.1 mph - N/A   Clear
3:35 AM 66.2 °F - 62.6 °F 88% 30.15 in 10.0 mi SE 8.1 mph - N/A   Clear
3:55 AM 66.2 °F - 62.6 °F 88% 30.16 in 10.0 mi SE 5.8 mph - N/A   Clear
4:15 AM 64.4 °F - 60.8 °F 88% 30.16 in 10.0 mi SSE 6.9 mph - N/A   Clear
4:35 AM 64.4 °F - 60.8 °F 88% 30.16 in 10.0 mi SE 8.1 mph - N/A   Clear
4:55 AM 64.4 °F - 60.8 °F 88% 30.16 in 10.0 mi SE 9.2 mph - N/A   Scattered Clouds
5:15 AM 64.4 °F - 60.8 °F 88% 30.16 in 10.0 mi SE 8.1 mph - N/A   Scattered Clouds
5:35 AM 64.4 °F - 60.8 °F 88% 30.16 in 10.0 mi SE 8.1 mph - N/A   Clear
5:55 AM 62.6 °F - 60.8 °F 94% 30.16 in 10.0 mi SE 9.2 mph - N/A   Clear
6:15 AM 62.6 °F - 59.0 °F 88% 30.16 in 10.0 mi SE 9.2 mph - N/A   Clear
6:35 AM 62.6 °F - 59.0 °F 88% 30.15 in 10.0 mi SE 9.2 mph - N/A   Mostly Cloudy
6:55 AM 62.6 °F - 59.0 °F 88% 30.16 in 10.0 mi SE 8.1 mph - N/A   Mostly Cloudy
7:15 AM 62.6 °F - 59.0 °F 88% 30.16 in 10.0 mi SE 9.2 mph - N/A   Partly Cloudy
7:35 AM 62.6 °F - 59.0 °F 88% 30.16 in 10.0 mi SE 8.1 mph - N/A   Clear
7:55 AM 64.4 °F - 59.0 °F 83% 30.16 in 10.0 mi SSE 10.4 mph - N/A   Clear
8:15 AM 64.4 °F - 60.8 °F 88% 30.16 in 10.0 mi SE 10.4 mph - N/A   Clear
8:35 AM 66.2 °F - 60.8 °F 83% 30.15 in 10.0 mi SSE 10.4 mph - N/A   Clear
8:55 AM 66.2 °F - 60.8 °F 83% 30.15 in 10.0 mi SE 10.4 mph - N/A   Clear
9:15 AM 68.0 °F - 60.8 °F 78% 30.15 in 10.0 mi SSE 9.2 mph - N/A   Clear
9:35 AM 69.8 °F - 62.6 °F 78% 30.15 in 10.0 mi South 10.4 mph - N/A   Clear
9:55 AM 71.6 °F - 62.6 °F 73% 30.14 in 10.0 mi South 9.2 mph 15.0 mph N/A   Clear
10:15 AM 73.4 °F - 64.4 °F 73% 30.12 in 9.0 mi South 11.5 mph - N/A   Clear
10:35 AM 75.2 °F - 64.4 °F 69% 30.12 in 10.0 mi South 10.4 mph - N/A   Clear
10:55 AM 77.0 °F - 64.4 °F 65% 30.12 in 10.0 mi SSW 11.5 mph - N/A   Clear
11:15 AM 78.8 °F - 62.6 °F 57% 30.12 in 10.0 mi SSW 10.4 mph - N/A   Clear
11:35 AM 80.6 °F 82.3 °F 64.4 °F 58% 30.12 in 10.0 mi South 10.4 mph 18.4 mph N/A   Clear
11:55 AM 82.4 °F 83.4 °F 62.6 °F 51% 30.11 in 9.0 mi South 11.5 mph - N/A   Clear
12:15 PM 82.4 °F 83.9 °F 64.4 °F 54% 30.10 in 10.0 mi South 12.7 mph - N/A   Clear
12:35 PM 84.2 °F 85.0 °F 62.6 °F 48% 30.09 in 10.0 mi South 12.7 mph 21.9 mph N/A   Clear
12:55 PM 84.2 °F 85.0 °F 62.6 °F 48% 30.08 in 10.0 mi SSW 16.1 mph - N/A   Clear
1:15 PM 86.0 °F 86.1 °F 60.8 °F 43% 30.07 in 10.0 mi SSW 17.3 mph - N/A   Clear
1:35 PM 86.0 °F 86.1 °F 60.8 °F 43% 30.06 in 10.0 mi SSW 18.4 mph 25.3 mph N/A   Clear
1:55 PM 86.0 °F 86.1 °F 60.8 °F 43% 30.06 in 10.0 mi South 16.1 mph 24.2 mph N/A   Clear
2:15 PM 86.0 °F 86.1 °F 60.8 °F 43% 30.05 in 10.0 mi South 18.4 mph - N/A   Clear
2:35 PM 86.0 °F 86.6 °F 62.6 °F 45% 30.04 in 10.0 mi SSW 15.0 mph 21.9 mph N/A   Clear
2:55 PM 86.0 °F 86.1 °F 60.8 °F 43% 30.03 in 10.0 mi South 18.4 mph 24.2 mph N/A   Clear
3:15 PM 86.0 °F 86.1 °F 60.8 °F 43% 30.03 in 10.0 mi SSW 13.8 mph 19.6 mph N/A   Clear
3:35 PM 86.0 °F 86.6 °F 62.6 °F 45% 30.02 in 10.0 mi South 15.0 mph 23.0 mph N/A   Clear
3:55 PM 86.0 °F 86.1 °F 60.8 °F 43% 30.01 in 10.0 mi South 13.8 mph 23.0 mph N/A   Clear
4:15 PM 86.0 °F 85.4 °F 59.0 °F 40% 30.01 in 10.0 mi South 15.0 mph 23.0 mph N/A   Clear
4:35 PM 86.0 °F 86.1 °F 60.8 °F 43% 30.00 in 9.0 mi South 12.7 mph 23.0 mph N/A   Clear
4:55 PM 86.0 °F 86.1 °F 60.8 °F 43% 30.00 in 9.0 mi South 15.0 mph - N/A   Clear
5:15 PM 86.0 °F 85.4 °F 59.0 °F 40% 30.00 in 10.0 mi SSW 16.1 mph - N/A   Clear
5:35 PM 86.0 °F 86.1 °F 60.8 °F 43% 30.00 in 10.0 mi SSW 11.5 mph - N/A   Clear
5:55 PM 84.2 °F 85.0 °F 62.6 °F 48% 29.99 in 10.0 mi South 12.7 mph - N/A   Clear
6:15 PM 84.2 °F 85.0 °F 62.6 °F 48% 29.99 in 10.0 mi South 10.4 mph - N/A   Clear
6:35 PM 82.4 °F 83.4 °F 62.6 °F 51% 29.98 in 10.0 mi South 8.1 mph - N/A   Clear
6:55 PM 82.4 °F 83.4 °F 62.6 °F 51% 29.98 in 10.0 mi South 8.1 mph - N/A   Clear
7:15 PM 78.8 °F - 62.6 °F 57% 29.98 in 10.0 mi South 8.1 mph - N/A   Clear
7:35 PM 78.8 °F - 64.4 °F 61% 29.97 in 10.0 mi SSE 8.1 mph - N/A   Clear
7:55 PM 77.0 °F - 64.4 °F 65% 29.97 in 10.0 mi SSE 8.1 mph - N/A   Clear
8:15 PM 77.0 °F - 62.6 °F 61% 29.97 in 10.0 mi SSE 9.2 mph - N/A   Clear
8:35 PM 75.2 °F - 62.6 °F 65% 29.97 in - SSE 8.1 mph - N/A   Clear
8:55 PM 75.2 °F - 62.6 °F 65% 29.97 in 10.0 mi SSE 9.2 mph - N/A   Clear
9:15 PM 75.2 °F - 62.6 °F 65% 29.96 in 10.0 mi SSE 9.2 mph - N/A   Scattered Clouds
9:35 PM 75.2 °F - 62.6 °F 65% 29.96 in 10.0 mi South 8.1 mph - N/A   Partly Cloudy
9:55 PM 73.4 °F - 62.6 °F 69% 29.96 in 10.0 mi SSE 9.2 mph - N/A   Clear
10:15 PM 73.4 °F - 62.6 °F 69% 29.96 in 10.0 mi South 8.1 mph - N/A   Clear
10:35 PM 73.4 °F - 62.6 °F 69% 29.96 in 10.0 mi South 6.9 mph - N/A   Clear
10:55 PM 73.4 °F - 62.6 °F 69% 29.95 in 10.0 mi South 9.2 mph - N/A   Scattered Clouds
11:15 PM 73.4 °F - 62.6 °F 69% 29.95 in 10.0 mi South 9.2 mph - N/A   Scattered Clouds
11:35 PM 71.6 °F - 60.8 °F 69% 29.95 in 10.0 mi South 9.2 mph - N/A   Partly Cloudy
11:55 PM 71.6 °F - 60.8 °F 69% 29.95 in 10.0 mi South 8.1 mph - N/A   Clear